Total_Precipitation_Accumulation
0.00 0.00 0.00 0.00 0.01 0.01 0.01 0.04 0.10 0.12 0.10 0.16 0.27 0.46 0.60 0.58 0.71 1.05 1.19 1.11 1.06 1.20 1.47 1.67 1.82 1.80 1.93 2.04 2.19 2.27 2.49 2.90 3.29 3.25 2.97 2.77 2.49 2.28 2.11 1.98 1.91 1.93 1.95 2.12
0.00 0.01 0.00 0.01 0.01 0.01 0.02 0.06 0.13 0.14 0.12 0.20 0.33 0.55 0.70 0.77 0.97 1.11 1.00 0.94 1.09 1.29 1.59 1.81 1.90 1.92 2.04 2.24 2.59 2.76 2.89 3.27 3.53 3.43 3.28 3.08 2.90 2.55 2.45 2.35 2.21 1.98 1.88 2.00
0.01 0.01 0.01 0.01 0.01 0.02 0.03 0.06 0.11 0.11 0.17 0.29 0.36 0.70 0.85 0.96 1.09 1.06 0.99 1.14 1.19 1.18 1.44 1.58 1.54 1.56 1.63 1.75 1.96 2.25 2.64 3.06 3.23 3.33 3.27 3.16 3.09 2.68 2.54 2.39 2.23 2.04 1.91 1.88
0.01 0.01 0.01 0.01 0.02 0.02 0.05 0.05 0.05 0.08 0.15 0.38 0.44 0.88 1.08 1.29 1.36 1.17 1.10 1.09 1.09 1.26 1.44 1.33 1.17 1.27 1.32 1.29 1.52 1.79 2.16 2.51 2.76 2.91 2.95 2.98 2.89 2.69 2.63 2.47 2.14 1.92 1.80 1.80
0.02 0.02 0.02 0.04 0.02 0.02 0.04 0.04 0.06 0.09 0.16 0.34 0.38 0.69 1.13 1.46 1.57 1.22 1.10 1.05 1.10 1.24 1.20 1.09 1.08 1.18 1.22 1.26 1.48 1.67 1.88 2.17 2.42 2.53 2.53 2.54 2.44 2.36 2.31 2.17 1.94 1.78 1.67 1.61
0.02 0.04 0.04 0.03 0.03 0.04 0.04 0.07 0.12 0.16 0.30 0.55 0.47 0.60 1.07 1.39 1.23 1.06 1.00 0.85 0.91 1.00 1.02 1.04 1.09 1.15 1.22 1.43 1.64 1.80 1.97 2.19 2.31 2.16 2.01 2.00 2.02 2.04 1.97 1.83 1.68 1.52 1.43 1.36
0.13 0.10 0.07 0.05 0.06 0.06 0.07 0.14 0.44 0.69 0.95 0.86 0.59 0.71 1.24 1.07 0.78 0.72 0.80 0.80 0.78 0.79 0.85 0.89 1.06 1.27 1.36 1.38 1.36 1.55 1.81 2.07 2.09 1.91 1.74 1.67 1.66 1.72 1.71 1.61 1.52 1.45 1.33 1.25
0.28 0.25 0.12 0.09 0.11 0.11 0.11 0.21 0.55 0.68 0.71 0.72 0.61 0.97 1.33 0.94 0.66 0.56 0.64 0.66 0.58 0.53 0.46 0.46 0.57 0.68 0.71 0.70 0.68 0.72 0.83 1.04 1.15 1.12 1.12 1.12 1.16 1.23 1.28 1.38 1.34 1.34 1.29 1.18
0.16 0.14 0.09 0.11 0.16 0.16 0.22 0.26 0.25 0.40 0.54 0.77 0.74 0.89 0.88 0.67 0.60 0.52 0.55 0.52 0.44 0.43 0.36 0.33 0.36 0.38 0.42 0.42 0.46 0.54 0.61 0.68 0.73 0.73 0.71 0.74 0.80 0.90 0.97 1.04 1.07 1.11 1.12 1.06
0.09 0.08 0.08 0.08 0.12 0.16 0.18 0.25 0.38 0.57 0.68 0.71 0.74 0.99 1.10 0.98 0.84 0.69 0.66 0.60 0.45 0.37 0.32 0.30 0.30 0.33 0.41 0.50 0.58 0.64 0.64 0.59 0.56 0.55 0.56 0.54 0.60 0.66 0.72 0.76 0.79 0.79 0.81 0.85
0.05 0.05 0.08 0.15 0.19 0.19 0.19 0.24 0.39 0.52 0.55 0.62 0.76 0.83 0.66 0.68 0.77 0.85 0.90 0.76 0.51 0.37 0.31 0.30 0.28 0.32 0.36 0.46 0.53 0.59 0.60 0.57 0.55 0.53 0.53 0.53 0.52 0.52 0.55 0.62 0.63 0.65 0.67 0.69
0.04 0.05 0.09 0.16 0.15 0.10 0.15 0.23 0.36 0.54 0.58 0.62 0.67 0.69 0.40 0.41 0.51 0.61 0.62 0.52 0.37 0.29 0.26 0.24 0.24 0.25 0.29 0.35 0.42 0.46 0.48 0.52 0.52 0.47 0.48 0.50 0.48 0.45 0.47 0.49 0.50 0.53 0.57 0.60
0.04 0.06 0.14 0.35 0.35 0.16 0.17 0.16 0.24 0.35 0.44 0.51 0.62 0.68 0.40 0.39 0.48 0.49 0.48 0.41 0.32 0.28 0.26 0.25 0.24 0.24 0.26 0.32 0.39 0.43 0.44 0.48 0.50 0.47 0.47 0.45 0.47 0.48 0.46 0.40 0.39 0.40 0.44 0.51
0.04 0.04 0.11 0.35 0.39 0.18 0.12 0.14 0.18 0.26 0.39 0.38 0.35 0.45 0.43 0.41 0.48 0.45 0.40 0.33 0.27 0.23 0.23 0.22 0.24 0.26 0.27 0.27 0.29 0.34 0.42 0.50 0.46 0.43 0.43 0.41 0.40 0.40 0.43 0.41 0.37 0.36 0.38 0.43
0.03 0.04 0.06 0.12 0.14 0.14 0.13 0.13 0.14 0.18 0.21 0.30 0.28 0.39 0.44 0.40 0.38 0.33 0.31 0.27 0.22 0.20 0.19 0.17 0.17 0.18 0.19 0.22 0.25 0.29 0.30 0.38 0.44 0.46 0.42 0.41 0.40 0.37 0.35 0.33 0.31 0.31 0.31 0.31
0.04 0.03 0.05 0.13 0.20 0.22 0.22 0.19 0.16 0.15 0.16 0.21 0.24 0.33 0.30 0.27 0.28 0.28 0.26 0.25 0.23 0.18 0.14 0.12 0.11 0.11 0.12 0.14 0.18 0.21 0.23 0.28 0.34 0.36 0.35 0.37 0.38 0.37 0.37 0.31 0.28 0.27 0.28 0.30
0.05 0.04 0.05 0.11 0.27 0.29 0.32 0.21 0.19 0.18 0.17 0.26 0.39 0.40 0.30 0.29 0.26 0.21 0.19 0.16 0.13 0.10 0.08 0.07 0.07 0.07 0.08 0.07 0.10 0.17 0.21 0.22 0.26 0.28 0.31 0.34 0.37 0.40 0.39 0.30 0.27 0.26 0.28 0.30
0.05 0.07 0.11 0.14 0.26 0.37 0.33 0.14 0.11 0.13 0.12 0.13 0.18 0.19 0.18 0.20 0.18 0.14 0.11 0.08 0.06 0.04 0.03 0.03 0.03 0.03 0.03 0.05 0.08 0.15 0.21 0.25 0.26 0.32 0.36 0.38 0.39 0.41 0.41 0.36 0.33 0.34 0.35 0.35
0.06 0.06 0.09 0.12 0.18 0.27 0.19 0.13 0.13 0.15 0.15 0.08 0.09 0.10 0.09 0.08 0.08 0.08 0.05 0.03 0.02 0.01 0.01 0.02 0.02 0.03 0.03 0.06 0.10 0.16 0.21 0.26 0.32 0.38 0.42 0.43 0.43 0.45 0.45 0.44 0.45 0.47 0.49 0.43
0.08 0.08 0.11 0.11 0.18 0.27 0.20 0.15 0.13 0.14 0.26 0.15 0.10 0.08 0.05 0.04 0.08 0.09 0.03 0.02 0.01 0.01 0.01 0.02 0.02 0.04 0.06 0.09 0.14 0.22 0.26 0.32 0.37 0.37 0.39 0.38 0.43 0.49 0.52 0.54 0.57 0.59 0.61 0.54
0.17 0.14 0.14 0.14 0.17 0.19 0.20 0.14 0.11 0.22 0.30 0.10 0.07 0.04 0.04 0.04 0.07 0.06 0.03 0.02 0.02 0.02 0.02 0.03 0.04 0.08 0.14 0.14 0.19 0.26 0.29 0.33 0.35 0.38 0.40 0.41 0.44 0.50 0.54 0.63 0.70 0.74 0.72 0.69
0.23 0.23 0.23 0.23 0.30 0.29 0.23 0.15 0.17 0.21 0.14 0.09 0.07 0.05 0.04 0.04 0.03 0.03 0.03 0.03 0.03 0.03 0.04 0.04 0.07 0.12 0.18 0.20 0.27 0.31 0.33 0.34 0.38 0.43 0.43 0.44 0.49 0.42 0.43 0.64 0.75 0.81 0.84 0.78
0.17 0.22 0.29 0.31 0.30 0.23 0.21 0.17 0.17 0.17 0.14 0.11 0.08 0.06 0.05 0.05 0.04 0.03 0.04 0.04 0.04 0.04 0.05 0.07 0.11 0.16 0.18 0.24 0.36 0.46 0.46 0.46 0.50 0.54 0.56 0.57 0.56 0.57 0.62 0.72 0.78 0.81 0.84 0.83
0.19 0.19 0.23 0.27 0.27 0.23 0.20 0.19 0.15 0.11 0.11 0.09 0.05 0.05 0.06 0.06 0.05 0.06 0.06 0.06 0.06 0.05 0.06 0.08 0.12 0.17 0.23 0.28 0.39 0.50 0.55 0.55 0.58 0.64 0.66 0.70 0.74 0.72 0.75 0.86 0.89 0.86 0.87 0.89
0.18 0.16 0.21 0.26 0.28 0.27 0.26 0.22 0.17 0.10 0.07 0.05 0.05 0.05 0.05 0.06 0.07 0.06 0.06 0.06 0.07 0.07 0.07 0.10 0.15 0.22 0.27 0.31 0.38 0.46 0.54 0.61 0.70 0.72 0.70 0.74 0.82 0.89 0.90 0.91 0.90 0.86 0.88 0.83
0.21 0.19 0.22 0.25 0.25 0.23 0.18 0.17 0.12 0.09 0.09 0.07 0.05 0.04 0.04 0.05 0.05 0.05 0.05 0.05 0.07 0.09 0.11 0.14 0.19 0.25 0.29 0.32 0.40 0.49 0.59 0.69 0.82 0.82 0.77 0.76 0.78 0.85 0.88 0.88 0.76 0.63 0.60 0.53